Location: Berlin
(42.3812°N, 71.6370°W)
Time: 22:38:26
(UTC+00:00)

Cosmos 2278 Rocket - Pass Details

Date: 15 November 2025
Orbit: 841 x 843 km, 71.0° (Epoch: 09 December)

Event Time Altitude Azimuth Distance (km) Brightness Sun altitude
Exits shadow 08:43:30 25° 159° (SSE) 1,620 3.8 -32.1°
Drops below altitude 10° 08:45:46 10° 158° (SSE) 2,452 4.8 -31.7°
Sets 08:48:12 0° 158° (SSE) 3,383 5.6 -31.3°
